Regional Weather Roundup
Issued by NWS

Home | Current Version | Previous Version | Text Only | Print | Product List | Glossary Off
Versions: 1 2 3 4 5 6 7 8 9 10 11 12 13 14 15 16 17 18 19 20 21 22 23 24 25 26 27 28

000
ASUS45 KSLC 241410
RWRUT

UTAH REGIONAL WEATHER ROUNDUP
NATIONAL WEATHER SERVICE SALT LAKE CITY UT
800 AM MDT FRI MAR 24 2017

UTZ001>011-023>025-241500-

NORTHERN UTAH

CITY           SKY/WX    TMP DP  RH WIND       PRES   REMARKS
BRIGHAM CITY     N/A     33  30  91 CALM      30.21R
HILL AFB       CLEAR     35  29  80 E12       30.20R WCI  27
LOGAN          CLEAR     32  29  88 E5        30.20R WCI  27
OGDEN          CLEAR     32  30  92 S7        30.20R WCI  26
SALT LAKE CITY PTCLDY    36  33  89 SE8       30.21R WCI  30
WENDOVER       PTCLDY    35  25  66 E9        30.19R WCI  28
HEBER CITY     CLEAR     30  28  93 CALM      30.21R

$$

UTZ011>015-024>027-241500-

CENTRAL/NORTHEAST UTAH

CITY           SKY/WX    TMP DP  RH WIND       PRES   REMARKS
PROVO AIRPORT  CLEAR     32  30  92 E3        30.24R
MOAB/CANYONLAN CLEAR     42  31  64 NW8       30.14R
DELTA          CLEAR     30  30 100 NE3       30.24R
PRICE          CLEAR     39  26  59 NW7       30.16R WCI  34
RICHFIELD      CLEAR     28  28 100 SW3       30.27R
ROOSEVELT      CLEAR     34  32  93 CALM      30.20R
VERNAL         CLOUDY    44  31  60 SE8       30.17R

$$

UTZ013>016-019>022-027-241500-

SOUTHERN UTAH

CITY           SKY/WX    TMP DP  RH WIND       PRES   REMARKS
BRYCE CANYON   PTCLDY    27  21  78 NW10      30.22R WCI  17
CEDAR CITY     PTCLDY    28  24  85 SE3       30.23R
MILFORD        CLEAR    N/A N/A N/A S8        30.24R
ST GEORGE      SUNNY     41  35  79 CALM      30.23R
HANKSVILLE     CLEAR     39  28  65 CALM      30.18R
KANAB          CLEAR     32  28  86 NW3       30.27R
BLANDING       CLEAR     44  26  49 S3G16     30.15R

$$

REGIONAL REPORTS     COLORADO/ARIZONA

CITY           SKY/WX    TMP DP  RH WIND       PRES   REMARKS
CRAIG, CO      CLOUDY    38  29  70 N16G24    30.13R WCI  29
GRAND JUNCTION PTCLDY    41  33  73 NW10      30.10R
RIFLE, CO      CLOUDY    42  30  62 W12       30.10R
MONTROSE, CO   CLOUDY    40  31  70 NW16G29   30.10R WCI  31
CORTEZ, CO     CLEAR     39  31  72 NW17      30.06R WCI  30
COLORADO CITY    N/A     32  30  93 CALM      30.26R
PAGE, AZ       CLEAR     47  32  56 W8        30.16R
GRAND CANYON   PTCLDY    30  27  88 W8        30.23R WCI  22
KINGMAN, AZ    CLEAR     36  31  82 CALM      30.20R
FLAGSTAFF, AZ  PTCLDY    31  21  66 CALM      30.20R

$$

REGIONAL REPORTS    NEVADA/IDAHO/WYOMING

CITY           SKY/WX    TMP DP  RH WIND       PRES   REMARKS
LAS VEGAS, NV  CLEAR     51  31  46 S5        30.18R
ELY, NY        MOCLDY    24  20  84 S12       30.21S WCI  13
ELKO, NV       MOCLDY    33  27  78 E6        30.15R WCI  28
POCATELLO, ID  CLEAR     33  25  72 E6        30.16R WCI  28
BURLEY, ID     CLEAR     36  25  64 S12       30.12R WCI  28
FORT BRIDGER,    N/A     32  31  95 W9        30.22R WCI  24
EVANSTON, WY   CLOUDY    28  24  85 SE6       30.19R WCI  22
ROCK SPRINGS,  CLOUDY    34  31  88 S5        30.19R WCI  30

$$




USA.gov is the U.S. government's official web portal to all federal, state and local government web resources and services.